Regional Weather Roundup
Issued by NWS Midland/Odessa, TX

Skip options and go directly to product.
Home | Oldest Version | Previous Version | Current Version | All | Text Only | Save Text | Print | Product List | Glossary Off

Skip product version selection by date and time.   

408
ASUS44 KMAF 051410
RWRMAF
MIDLAND AREA WEATHER ROUNDUP
NATIONAL WEATHER SERVICE MIDLAND TX
800 AM CST THU MAR 05 2015

...IN SOUTHWEST TEXAS AND SOUTHEAST NEW MEXICO...

CITY           SKY/WX    TMP DP  RH WIND       PRES   REMARKS
ALPINE         CLOUDY    22  21  94 NE9       30.50R WCI  12
ANDREWS        CLOUDY    26  17  70 NE6       30.52R WCI  19
ARTESIA        CLOUDY    27  23  86 CALM      30.52R
BIG SPRING     MOCLDY    27  19  70 N7        30.56R WCI  20
CARLSBAD       CLOUDY    29  19  66 CALM      30.51R
DRYDEN           N/A     31  22  69 N13       30.52R WCI  21
FORT STOCKTON  CLOUDY    26  24  92 N7        30.53R WCI  18
GUAD PASS      NOT AVBL
HOBBS          PTCLDY    25  18  74 N5        30.50R WCI  19
MARFA          MOCLDY    21  18  86 N20       30.40R WCI   6
MIDLAND AIRPK  MOCLDY    28  20  72 N5        30.54R WCI  23
MIDLAND INTL   CLOUDY    26  18  71 NE9       30.53R WCI  17
ODESSA         CLOUDY    26  16  65 NE6       30.53R WCI  19
PECOS          CLOUDY    29  24  82 N5        30.56R WCI  24
PRESIDIO       CLOUDY    35  22  61 NE15      30.45R WCI  25
SEMINOLE       CLEAR     25  18  74 CALM      30.52R
SNYDER         MOSUNNY   23  17  79 N7        30.55R WCI  15
WINK           CLOUDY    28  15  58 NE7       30.54R WCI  21
$$
...OTHER STATIONS IN TEXAS...

CITY           SKY/WX    TMP DP  RH WIND       PRES   REMARKS
ABILENE        SUNNY     22  17  81 N10       30.56R WCI  11
AMARILLO       CLEAR     17  14  88 SW5       30.45S WCI  10
AUSTIN         CLOUDY    31  26  82 N29G37    30.45R WCI  16
BROWNSVILLE    CLOUDY    43  40  89 N21G31    30.28R WCI  34
CORPUS CHRISTI LGT RAIN  39  34  82 N31G38    30.36R WCI  27
DALLAS FTW     MOSUNNY   22  16  78 N12       30.56R WCI  10
DEL RIO        CLOUDY    35  25  66 NW12G22   30.54R WCI  27
EL PASO        PTCLDY    30  20  66 E7        30.39R WCI  23
HOUSTON INT    CLOUDY    39  35  86 N25G31    30.35R WCI  28
LUBBOCK        PTCLDY    18  14  84 N6        30.49R WCI  10
SAN ANGELO     SUNNY     26  19  74 NW9       30.55R WCI  17
SAN ANTONIO    CLOUDY    34  27  75 N15G24    30.43R WCI  24
WACO           MOSUNNY   27  20  75 N16       30.52R WCI  15
WICHITA FALLS  NOT AVBL
$$
...OTHER LOCATIONS IN NEW MEXICO...

CITY           SKY/WX    TMP DP  RH WIND       PRES   REMARKS
ALAMAGORDO     PTCLDY    27  23  86 S8        30.40R WCI  18
ALBUQUERQUE    CLEAR     23  18  81 N7        30.37R WCI  15
CANNON AFB     CLEAR     18  15  87 W6        30.43R WCI  10
CLOVIS         CLEAR     16  12  86 W3        30.43R
HOLLOMAN AFB   CLEAR     27  22  80 S14       30.38R WCI  16
ROSWELL        CLOUDY    27  21  78 E3        30.49R
RUIDOSO        FOG       14  10  85 CALM      30.34R VSB<1/4
SANTA FE       CLEAR     16  12  84 N7        30.33S WCI   6
TRUTH OR CONSE CLEAR     27  18  69 N6        30.36R WCI  20
TUCUMCARI      PTCLDY    18  15  88 VRB6      30.42S WCI  10
$$

USA.gov is the U.S. government's official web portal to all federal, state and local government web resources and services.